Weather History for KCUT - February, 2014

Change the Weather History Date:

Friday, February 21, 2014

  Actual Average Record
Temperature  
Mean Temperature 25 °F 26 °F  
Max Temperature 31 °F 37 °F 64 °F (1958)
Min Temperature 19 °F 16 °F -15 °F (1963)
Degree Days  
Heating Degree Days 40 38  
Month to date heating degree days 988 837  
Since 1 July heating degree days 5498 5572  
Cooling Degree Days 0 0  
Month to date cooling degree days 0 0  
Year to date cooling degree days 0 0  
Moisture  
Dew Point 12 °F    
Average Humidity 56    
Maximum Humidity 68    
Minimum Humidity 43    
Precipitation  
Precipitation T in 0.02 in 0.20 in (1975)
Month to date precipitation 0.48 0.41  
Year to date precipitation 0.93 0.74  
Sea Level Pressure  
Sea Level Pressure 29.78 in    
Wind  
Wind Speed 12 mph (WNW)    
Max Wind Speed 25 mph    
Max Gust Speed 40 mph    
Visibility 10 miles    
Events Snow    
T = Trace of Precipitation, MM = Missing Value Source: NWS Daily Summary

Daily Weather History Graph

Daily Weather History Graph

Search for Another Location

Airport or City:

Trip Planner

Search our weather history database for the weather conditions in past years. The results will help you decide how hot, cold, wet, or windy it might be!

Date:

Astronomy

Feb. 21, 2014 Rise Set
Actual Time 6:44 AM MST 5:32 PM MST
Civil Twilight 6:14 AM MST 6:01 PM MST
Nautical Twilight 5:41 AM MST 6:35 PM MST
Astronomical Twilight 5:08 AM MST 7:08 PM MST
Moon No Moon Rise 9:56 AM MST (2/21)
Length of Visible Light 11h 47m
Length of Day
10h 48m
Waning Gibbous, 60% of the Moon is Illuminated
Feb 21
Waning Gibbous
Feb 22
Last Quarter
Mar 1
New
Mar 8
First Quarter
Mar 16
Full

Hourly Weather History & Observations

Time (MST) Temp. Windchill Dew Point Humidity Pressure Visibility Wind Dir Wind Speed Gust Speed Precip Events Conditions
12:53 AM 23.0 °F 10.6 °F 12.0 °F 63% 29.75 in 10.0 mi West 13.8 mph 20.7 mph N/A   Overcast
1:53 AM 21.9 °F 9.2 °F 14.0 °F 72% 29.75 in 6.0 mi West 13.8 mph 23.0 mph 0.00 in Snow Light Snow
2:53 AM 23.0 °F 10.6 °F 12.9 °F 65% 29.73 in 8.0 mi West 13.8 mph - 0.00 in Snow Light Snow
3:53 AM 23.0 °F 10.6 °F 12.9 °F 65% 29.75 in 10.0 mi WNW 13.8 mph - 0.00 in   Mostly Cloudy
4:53 AM 24.1 °F 11.5 °F 15.1 °F 69% 29.76 in 10.0 mi WNW 15.0 mph 23.0 mph 0.00 in   Overcast
5:53 AM 23.0 °F 13.9 °F 15.1 °F 72% 29.78 in 5.0 mi WNW 8.1 mph 25.3 mph 0.00 in Snow Light Snow
6:27 AM 23.0 °F 11.1 °F 14.0 °F 68% 29.65 in 10.0 mi WNW 12.7 mph 20.7 mph 0.00 in   Scattered Clouds
6:53 AM 23.0 °F 10.6 °F 12.0 °F 63% 29.78 in 10.0 mi WNW 13.8 mph 25.3 mph 0.00 in   Clear
7:50 AM 24.8 °F 12.9 °F 14.0 °F 64% 29.66 in 10.0 mi WNW 13.8 mph 21.9 mph N/A   Mostly Cloudy
7:53 AM 24.1 °F 12.5 °F 14.0 °F 65% 29.79 in 10.0 mi WNW 12.7 mph 21.9 mph N/A   Mostly Cloudy
8:02 AM 25.0 °F 14.8 °F 14.0 °F 63% 29.67 in 10.0 mi WNW 10.4 mph 23.0 mph N/A   Scattered Clouds
8:53 AM 27.0 °F 15.2 °F 14.0 °F 58% 29.79 in 10.0 mi WNW 15.0 mph 26.5 mph N/A   Partly Cloudy
9:53 AM 27.0 °F 15.2 °F 12.0 °F 53% 29.79 in 10.0 mi WNW 15.0 mph 25.3 mph N/A   Mostly Cloudy
10:53 AM 28.9 °F 17.7 °F 12.0 °F 49% 29.78 in 10.0 mi WNW 15.0 mph 31.1 mph N/A   Scattered Clouds
11:53 AM 30.9 °F 19.4 °F 10.9 °F 43% 29.76 in 10.0 mi WNW 17.3 mph 28.8 mph N/A   Partly Cloudy
12:53 PM 30.0 °F 18.7 °F 12.0 °F 47% 29.75 in 10.0 mi WNW 16.1 mph 28.8 mph N/A   Overcast
1:53 PM 28.9 °F 16.1 °F 12.0 °F 49% 29.77 in 10.0 mi West 19.6 mph 27.6 mph N/A   Overcast
2:53 PM 28.0 °F 15.3 °F 12.0 °F 51% 29.77 in 10.0 mi WNW 18.4 mph 28.8 mph N/A   Overcast
3:53 PM 27.0 °F 18.0 °F 10.9 °F 51% 29.78 in 10.0 mi WNW 9.2 mph 21.9 mph N/A   Overcast
4:53 PM 25.0 °F 13.1 °F 10.0 °F 53% 29.78 in 10.0 mi WNW 13.8 mph 20.7 mph N/A   Mostly Cloudy
5:53 PM 24.1 °F 16.0 °F 12.0 °F 60% 29.81 in 10.0 mi WNW 6.9 mph - N/A   Mostly Cloudy
6:53 PM 24.1 °F 13.1 °F 12.9 °F 62% 29.84 in 10.0 mi West 11.5 mph - N/A   Overcast
7:53 PM 24.1 °F 12.5 °F 12.0 °F 60% 29.85 in 10.0 mi WNW 12.7 mph 21.9 mph N/A   Overcast
8:53 PM 21.9 °F 14.5 °F 9.0 °F 58% 29.86 in 10.0 mi Variable 5.8 mph 20.7 mph N/A   Overcast
9:53 PM 21.0 °F 12.4 °F 10.0 °F 63% 29.87 in 10.0 mi NW 6.9 mph - N/A   Overcast
10:53 PM 19.9 °F 13.4 °F 10.0 °F 65% 29.86 in 10.0 mi WSW 4.6 mph - N/A   Overcast
11:53 PM 19.0 °F 11.1 °F 10.9 °F 71% 29.88 in 10.0 mi West 5.8 mph - N/A   Overcast